| time (UTC) | temp C | wind direction | speed KPH | gust KPH | rain 1hr cm | rain 24hr cm | rain mn cm | humidity % | barometer mb |
| 20260904183058 | 28 | 191 | 1.6 | 11.3 | 0.00 | 0.00 | 0.00 | 47 | 1013.3 |
| 20260904181549 | 29 | 192 | 0.0 | 6.4 | 0.00 | 0.00 | 0.00 | 46 | 1013.1 |
| 20260904180059 | 30 | 218 | 1.6 | 12.9 | 0.00 | 0.00 | 0.00 | 44 | 1013.0 |
| 20260904174549 | 30 | 189 | 3.2 | 14.5 | 0.00 | 0.00 | 0.00 | 43 | 1012.9 |
| 20260904173110 | 31 | 196 | 8.0 | 17.7 | 0.00 | 0.00 | 0.00 | 41 | 1012.8 |
| 20260904171554 | 31 | 198 | 6.4 | 17.7 | 0.00 | 0.00 | 0.00 | 40 | 1012.9 |
| 20260904170056 | 31 | 128 | 8.0 | 22.5 | 0.00 | 0.00 | 0.00 | 39 | 1012.8 |
| 20260904164547 | 32 | 198 | 9.7 | 24.1 | 0.00 | 0.00 | 0.00 | 38 | 1012.8 |
| 20260904163048 | 32 | 190 | 9.7 | 19.3 | 0.00 | 0.00 | 0.00 | 37 | 1012.7 |
| 20260904161544 | 32 | 216 | 8.0 | 22.5 | 0.00 | 0.00 | 0.00 | 36 | 1012.7 |
| 20260904160044 | 32 | 196 | 8.0 | 20.9 | 0.00 | 0.00 | 0.00 | 36 | 1012.7 |
| 20260904154542 | 32 | 213 | 8.0 | 24.1 | 0.00 | 0.00 | 0.00 | 36 | 1012.7 |
| 20260904153049 | 32 | 250 | 11.3 | 22.5 | 0.00 | 0.00 | 0.00 | 36 | 1013.0 |
| 20260904151545 | 32 | 197 | 8.0 | 29.0 | 0.00 | 0.00 | 0.00 | 36 | 1013.0 |
| 20260904150043 | 32 | 190 | 8.0 | 25.7 | 0.00 | 0.00 | 0.00 | 37 | 1012.9 |
| 20260904144538 | 32 | 179 | 12.9 | 20.9 | 0.00 | 0.00 | 0.00 | 37 | 1013.0 |
| 20260904143036 | 32 | 200 | 11.3 | 27.4 | 0.00 | 0.00 | 0.00 | 37 | 1013.1 |
| 20260904141537 | 32 | 217 | 12.9 | 29.0 | 0.00 | 0.00 | 0.00 | 38 | 1013.1 |
| 20260904140033 | 32 | 108 | 12.9 | 27.4 | 0.00 | 0.00 | 0.00 | 38 | 1013.2 |
| 20260904134531 | 32 | 159 | 12.9 | 30.6 | 0.00 | 0.00 | 0.00 | 37 | 1013.4 |
| 20260904133030 | 32 | 165 | 11.3 | 32.2 | 0.00 | 0.00 | 0.00 | 38 | 1013.6 |
| 20260904131523 | 32 | 127 | 12.9 | 32.2 | 0.00 | 0.00 | 0.00 | 37 | 1013.8 |
| 20260904130021 | 31 | 225 | 12.9 | 24.1 | 0.00 | 0.00 | 0.00 | 38 | 1014.1 |
| 20260904124518 | 31 | 125 | 8.0 | 25.7 | 0.00 | 0.00 | 0.00 | 38 | 1014.5 |
| 20260904123017 | 31 | 140 | 12.9 | 30.6 | 0.00 | 0.00 | 0.00 | 38 | 1014.5 |
| 20260904121503 | 31 | 152 | 16.1 | 25.7 | 0.00 | 0.00 | 0.00 | 38 | 1014.7 |
| 20260904120115 | 31 | 165 | 12.9 | 27.4 | 0.00 | 0.00 | 0.00 | 38 | 1014.8 |
| 20260904114557 | 31 | 193 | 16.1 | 30.6 | 0.00 | 0.00 | 0.00 | 39 | 1015.0 |
| 20260904113055 | 30 | 212 | 16.1 | 32.2 | 0.00 | 0.00 | 0.00 | 39 | 1015.3 |
| 20260904111600 | 30 | 238 | 9.7 | 22.5 | 0.00 | 0.00 | 0.00 | 39 | 1015.3 |
| 20260904110049 | 30 | 196 | 9.7 | 20.9 | 0.00 | 0.00 | 0.00 | 39 | 1015.6 |
| 20260904104546 | 29 | 244 | 9.7 | 22.5 | 0.00 | 0.00 | 0.00 | 40 | 1015.8 |
| 20260904103044 | 29 | 227 | 9.7 | 25.7 | 0.00 | 0.00 | 0.00 | 39 | 1016.0 |
| 20260904101539 | 29 | 218 | 9.7 | 20.9 | 0.00 | 0.00 | 0.00 | 38 | 1016.2 |
| 20260904100036 | 29 | 198 | 12.9 | 25.7 | 0.00 | 0.00 | 0.00 | 38 | 1016.3 |
| 20260904094535 | 28 | 204 | 6.4 | 24.1 | 0.00 | 0.00 | 0.00 | 38 | 1016.6 |
| 20260904093029 | 28 | 175 | 11.3 | 20.9 | 0.00 | 0.00 | 0.00 | 38 | 1016.6 |
| 20260904091525 | 28 | 217 | 4.8 | 19.3 | 0.00 | 0.00 | 0.00 | 40 | 1016.8 |
| 20260904090021 | 27 | 222 | 3.2 | 16.1 | 0.00 | 0.00 | 0.00 | 44 | 1016.9 |
| 20260904084517 | 26 | 169 | 3.2 | 12.9 | 0.00 | 0.00 | 0.00 | 47 | 1017.0 |
| 20260904083012 | 26 | 224 | 3.2 | 14.5 | 0.00 | 0.00 | 0.00 | 50 | 1017.1 |
| 20260904081508 | 25 | 219 | 0.0 | 8.0 | 0.00 | 0.00 | 0.00 | 51 | 1017.2 |
| 20260904080005 | 24 | 218 | 0.0 | 6.4 | 0.00 | 0.00 | 0.00 | 54 | 1017.2 |
| 20260904074616 | 23 | 160 | 0.0 | 8.0 | 0.00 | 0.00 | 0.00 | 54 | 1017.1 |
| 20260904073104 | 21 | 99 | 0.0 | 0.0 | 0.00 | 0.00 | 0.00 | 58 | 1017.3 |
| 20260904071551 | 20 | 64 | 0.0 | 0.0 | 0.00 | 0.00 | 0.00 | 62 | 1017.4 |
| 20260904064542 | 18 | 65 | 0.0 | 0.0 | 0.00 | 0.00 | 0.00 | 68 | 1017.7 |
| 20260904063041 | 18 | 65 | 0.0 | 4.8 | 0.00 | 0.00 | 0.00 | 69 | 1017.7 |
| 20260904061539 | 17 | 92 | 0.0 | 4.8 | 0.00 | 0.00 | 0.00 | 70 | 1017.8 |
| 20260904060038 | 17 | 74 | 0.0 | 3.2 | 0.00 | 0.00 | 0.00 | 70 | 1018.0 |
| 20260904054536 | 17 | 71 | 0.0 | 0.0 | 0.00 | 0.00 | 0.00 | 71 | 1018.1 |
| 20260904053038 | 17 | 84 | 0.0 | 0.0 | 0.00 | 0.00 | 0.00 | 71 | 1018.1 |
| 20260904051633 | 17 | 77 | 0.0 | 6.4 | 0.00 | 0.00 | 0.00 | 71 | 1018.1 |
| 20260904050035 | 17 | 93 | 0.0 | 0.0 | 0.00 | 0.00 | 0.00 | 71 | 1018.1 |
| 20260904044530 | 17 | 81 | 0.0 | 0.0 | 0.00 | 0.00 | 0.00 | 71 | 1018.1 |
| 20260904043029 | 17 | 90 | 0.0 | 6.4 | 0.00 | 0.00 | 0.00 | 71 | 1018.1 |
| 20260904041526 | 17 | 93 | 0.0 | 4.8 | 0.00 | 0.00 | 0.00 | 71 | 1018.1 |
| 20260904040026 | 17 | 92 | 0.0 | 1.6 | 0.00 | 0.00 | 0.00 | 71 | 1018.3 |
| 20260904034528 | 17 | 95 | 0.0 | 4.8 | 0.00 | 0.00 | 0.00 | 70 | 1018.5 |
| 20260904033021 | 17 | 90 | 0.0 | 4.8 | 0.00 | 0.00 | 0.00 | 70 | 1018.7 |
| 20260904031519 | 17 | 83 | 0.0 | 0.0 | 0.00 | 0.00 | 0.00 | 69 | 1018.7 |
| 20260904030019 | 17 | 100 | 0.0 | 4.8 | 0.00 | 0.00 | 0.00 | 69 | 1018.7 |
| 20260904024520 | 18 | 61 | 1.6 | 6.4 | 0.00 | 0.00 | 0.00 | 69 | 1018.8 |
| 20260904023024 | 18 | 80 | 0.0 | 4.8 | 0.00 | 0.00 | 0.00 | 68 | 1019.0 |
| 20260904021522 | 18 | 70 | 0.0 | 4.8 | 0.00 | 0.00 | 0.00 | 68 | 1019.1 |
| 20260904020012 | 18 | 98 | 0.0 | 4.8 | 0.00 | 0.00 | 0.00 | 68 | 1019.2 |
| 20260904014511 | 18 | 91 | 0.0 | 0.0 | 0.00 | 0.00 | 0.00 | 68 | 1019.2 |
| 20260904013009 | 18 | 91 | 0.0 | 0.0 | 0.00 | 0.00 | 0.00 | 68 | 1019.3 |
| 20260904011506 | 18 | 91 | 0.0 | 1.6 | 0.00 | 0.00 | 0.00 | 68 | 1019.4 |
| 20260904010004 | 18 | 84 | 0.0 | 4.8 | 0.00 | 0.00 | 0.00 | 67 | 1019.5 |
| 20260904004502 | 18 | 86 | 0.0 | 4.8 | 0.00 | 0.00 | 0.00 | 66 | 1019.6 |
| 20260904003102 | 19 | 80 | 0.0 | 6.4 | 0.00 | 0.00 | 0.00 | 65 | 1019.8 |
| 20260904001555 | 20 | 260 | 0.0 | 0.0 | 0.00 | 0.00 | 0.00 | 63 | 1019.9 |
| 20260904000137 | 20 | 261 | 0.0 | 0.0 | 0.00 | 0.00 | 0.00 | 61 | 1020.0 |
| 20260903234551 | 21 | 260 | 0.0 | 0.0 | 0.00 | 0.00 | 0.00 | 59 | 1020.0 |
| 20260903233046 | 21 | 260 | 0.0 | 0.0 | 0.00 | 0.00 | 0.00 | 58 | 1019.8 |
| 20260903231547 | 21 | 260 | 0.0 | 0.0 | 0.00 | 0.00 | 0.00 | 57 | 1019.9 |
| 20260903230039 | 22 | 209 | 0.0 | 0.0 | 0.00 | 0.00 | 0.00 | 54 | 1019.9 |
| 20260903224545 | 22 | 209 | 0.0 | 1.6 | 0.00 | 0.00 | 0.00 | 52 | 1020.0 |
| 20260903223035 | 23 | 188 | 0.0 | 4.8 | 0.00 | 0.00 | 0.00 | 51 | 1019.9 |
| 20260903221534 | 23 | 229 | 0.0 | 11.3 | 0.00 | 0.00 | 0.00 | 51 | 1019.9 |
| 20260903220033 | 23 | 199 | 3.2 | 8.0 | 0.00 | 0.00 | 0.00 | 51 | 1019.8 |
| 20260903214536 | 23 | 203 | 0.0 | 6.4 | 0.00 | 0.00 | 0.00 | 51 | 1019.9 |
| 20260903213036 | 23 | 192 | 0.0 | 8.0 | 0.00 | 0.00 | 0.00 | 50 | 1020.0 |
| 20260903211538 | 23 | 219 | 0.0 | 6.4 | 0.00 | 0.00 | 0.00 | 50 | 1019.9 |
| 20260903210031 | 23 | 201 | 0.0 | 8.0 | 0.00 | 0.00 | 0.00 | 49 | 1020.1 |
| 20260903204529 | 24 | 223 | 1.6 | 6.4 | 0.00 | 0.00 | 0.00 | 48 | 1020.1 |
| 20260903203037 | 24 | 173 | 1.6 | 9.7 | 0.00 | 0.00 | 0.00 | 47 | 1020.0 |
| 20260903201528 | 24 | 154 | 0.0 | 6.4 | 0.00 | 0.00 | 0.00 | 47 | 1020.1 |
| 20260903200030 | 24 | 190 | 3.2 | 11.3 | 0.00 | 0.00 | 0.00 | 47 | 1020.1 |
| 20260903194543 | 24 | 190 | 3.2 | 14.5 | 0.00 | 0.00 | 0.00 | 47 | 1020.0 |
| 20260903193026 | 24 | 168 | 1.6 | 11.3 | 0.00 | 0.00 | 0.00 | 47 | 1020.0 |
| 20260903191537 | 24 | 184 | 4.8 | 9.7 | 0.00 | 0.00 | 0.00 | 47 | 1019.9 |
| 20260903190025 | 25 | 174 | 0.0 | 6.4 | 0.00 | 0.00 | 0.00 | 46 | 1019.8 |
| 20260903184525 | 25 | 169 | 0.0 | 11.3 | 0.00 | 0.00 | 0.00 | 46 | 1019.8 |